Sulphur, LA

12:47 AM CDT on May 28, 2018 (GMT -0500)
Sulphur

Weather History for KUXL - February, 2013

Change the Weather History Date:

Wednesday, February 20, 2013

  Actual Average (WUND) Record (WUND)
Temperature  
Mean Temperature 52 °F -  
Max Temperature 59 °F - - (-1)
Min Temperature 46 °F - - (-1)
Degree Days  
Heating Degree Days 12    
Growing Degree Days 2 (Base 50)    
Moisture  
Dew Point 39 °F    
Average Humidity 57    
Maximum Humidity 82    
Minimum Humidity 44    
Precipitation  
Precipitation 0.00 in - - ()
Sea Level Pressure  
Sea Level Pressure 30.09 in    
Wind  
Wind Speed 11 mph (East)    
Max Wind Speed 16 mph    
Max Gust Speed 26 mph    
Visibility 10 miles    
Events Rain    
Averages and records for this station are not official NWS values.
T = Trace of Precipitation, MM = Missing Value Source: NWS Daily Summary

Daily Weather History Graph

Daily Weather History Graph

Search for Another Location

Airport or City:

Astronomy

Feb. 20, 2013 Rise Set
Actual Time 6:48 AM CST 6:06 PM CST
Civil Twilight 6:24 AM CST 6:30 PM CST
Nautical Twilight 5:56 AM CST 6:58 PM CST
Astronomical Twilight 5:28 AM CST 7:26 PM CST
Moon 1:40 PM CST (2/20) 2:56 AM CST (2/20)
Length of Visible Light 12h 06m
Length of Day
11h 17m
Waxing Gibbous, 76% of the Moon is Illuminated
Feb 20
Waxing Gibbous
Feb 25
Full
Mar 4
Last Quarter
Mar 11
New
Mar 19
First Quarter

Hourly Weather History & Observations

Time (CST) Temp. Windchill Dew Point Humidity Pressure Visibility Wind Dir Wind Speed Gust Speed Precip Events Conditions
12:15 AM 51.8 °F - 35.6 °F 54% 30.21 in 10.0 mi NE 9.2 mph - N/A   Clear
12:35 AM 51.8 °F - 37.4 °F 58% 30.19 in 10.0 mi NE 11.5 mph - N/A   Clear
12:55 AM 51.8 °F - 37.4 °F 58% 30.18 in 10.0 mi ENE 10.4 mph 16.1 mph N/A   Clear
1:15 AM 51.8 °F - 35.6 °F 54% 30.17 in 10.0 mi ENE 10.4 mph - N/A   Clear
1:35 AM 51.8 °F - 35.6 °F 54% 30.16 in 10.0 mi ENE 10.4 mph 18.4 mph N/A   Clear
1:55 AM 50.0 °F - 37.4 °F 62% 30.17 in 10.0 mi ENE 10.4 mph 16.1 mph N/A   Clear
2:15 AM 50.0 °F - 37.4 °F 62% 30.18 in 10.0 mi ENE 8.1 mph - N/A   Clear
2:35 AM 50.0 °F - 37.4 °F 62% 30.17 in 10.0 mi East 8.1 mph - N/A   Clear
2:55 AM 48.2 °F - 37.4 °F 66% 30.16 in 10.0 mi ENE 10.4 mph - N/A   Clear
3:15 AM 48.2 °F - 37.4 °F 66% 30.17 in 10.0 mi ENE 8.1 mph - N/A   Clear
3:35 AM 48.2 °F - 37.4 °F 66% 30.17 in 10.0 mi ENE 6.9 mph - N/A   Scattered Clouds
3:55 AM 48.2 °F - 37.4 °F 66% 30.16 in 10.0 mi ENE 9.2 mph - N/A   Scattered Clouds
4:15 AM 48.2 °F - 37.4 °F 66% 30.15 in 10.0 mi ENE 8.1 mph - N/A   Clear
4:35 AM 48.2 °F - 37.4 °F 66% 30.16 in 10.0 mi East 10.4 mph - N/A   Clear
5:15 AM 48.2 °F - 33.8 °F 58% 30.17 in 10.0 mi ENE 11.5 mph - N/A   Clear
5:35 AM 48.2 °F - 32.0 °F 54% 30.17 in 10.0 mi ENE 9.2 mph - N/A   Clear
5:55 AM 48.2 °F - 32.0 °F 54% 30.18 in 10.0 mi ENE 10.4 mph - N/A   Clear
6:15 AM 46.4 °F 41.9 °F 32.0 °F 57% 30.18 in 10.0 mi ENE 9.2 mph - N/A   Clear
6:35 AM 46.4 °F 43.5 °F 32.0 °F 57% 30.19 in 10.0 mi ENE 5.8 mph - N/A   Clear
6:55 AM 46.4 °F 42.9 °F 32.0 °F 57% 30.20 in 10.0 mi ENE 6.9 mph - N/A   Clear
7:15 AM 46.4 °F 41.5 °F 32.0 °F 57% 30.19 in 10.0 mi ENE 10.4 mph 16.1 mph N/A   Clear
7:35 AM 46.4 °F 41.1 °F 32.0 °F 57% 30.18 in 10.0 mi ENE 11.5 mph 18.4 mph N/A   Clear
7:55 AM 48.2 °F - 32.0 °F 54% 30.18 in 10.0 mi ENE 15.0 mph - N/A   Clear
8:15 AM 48.2 °F - 32.0 °F 54% 30.20 in 10.0 mi East 12.7 mph 17.3 mph N/A   Clear
8:35 AM 48.2 °F - 32.0 °F 54% 30.22 in 10.0 mi East 12.7 mph 18.4 mph N/A   Clear
8:55 AM 50.0 °F - 32.0 °F 50% 30.20 in 10.0 mi ENE 11.5 mph 17.3 mph N/A   Clear
9:15 AM 50.0 °F - 30.2 °F 47% 30.19 in 10.0 mi ENE 12.7 mph 16.1 mph N/A   Clear
9:35 AM 50.0 °F - 30.2 °F 47% 30.16 in 10.0 mi ENE 16.1 mph 21.9 mph N/A   Clear
9:55 AM 51.8 °F - 32.0 °F 47% 30.17 in 10.0 mi ENE 16.1 mph 24.2 mph N/A   Clear
10:15 AM 53.6 °F - 32.0 °F 44% 30.15 in 10.0 mi East 15.0 mph 20.7 mph N/A   Clear
10:35 AM 53.6 °F - 32.0 °F 44% 30.14 in 10.0 mi East 15.0 mph 26.5 mph N/A   Clear
10:55 AM 53.6 °F - 33.8 °F 47% 30.18 in 10.0 mi East 10.4 mph - N/A   Mostly Cloudy
11:15 AM 53.6 °F - 33.8 °F 47% 30.16 in 10.0 mi East 12.7 mph - N/A   Mostly Cloudy
11:35 AM 55.4 °F - 35.6 °F 47% 30.16 in 10.0 mi ESE 11.5 mph - N/A   Scattered Clouds
11:55 AM 55.4 °F - 35.6 °F 47% 30.14 in 10.0 mi East 12.7 mph 18.4 mph N/A   Clear
12:15 PM 55.4 °F - 37.4 °F 51% 30.12 in 10.0 mi East 11.5 mph 19.6 mph N/A   Scattered Clouds
12:35 PM 59.0 °F - 37.4 °F 45% 30.10 in 10.0 mi ESE 16.1 mph 21.9 mph N/A   Mostly Cloudy
12:55 PM 57.2 °F - 39.2 °F 51% 30.10 in 10.0 mi East 13.8 mph 21.9 mph N/A   Mostly Cloudy
1:15 PM 59.0 °F - 41.0 °F 51% 30.09 in 10.0 mi East 12.7 mph 19.6 mph N/A   Mostly Cloudy
1:35 PM 59.0 °F - 42.8 °F 55% 30.09 in 10.0 mi East 10.4 mph 20.7 mph N/A   Overcast
1:55 PM 59.0 °F - 42.8 °F 55% 30.09 in 10.0 mi ESE 12.7 mph 17.3 mph N/A   Mostly Cloudy
2:15 PM 59.0 °F - 42.8 °F 55% 30.07 in 10.0 mi East 10.4 mph - N/A   Mostly Cloudy
2:35 PM 59.0 °F - 42.8 °F 55% 30.06 in 10.0 mi East 12.7 mph 18.4 mph N/A   Overcast
2:55 PM 59.0 °F - 44.6 °F 59% 30.03 in 10.0 mi East 15.0 mph 21.9 mph N/A   Mostly Cloudy
3:15 PM 59.0 °F - 44.6 °F 59% 30.03 in 10.0 mi East 16.1 mph 19.6 mph N/A   Mostly Cloudy
3:35 PM 59.0 °F - 44.6 °F 59% 30.03 in 10.0 mi East 12.7 mph 19.6 mph N/A   Overcast
3:55 PM 57.2 °F - 44.6 °F 63% 30.02 in 10.0 mi East 12.7 mph 19.6 mph N/A   Overcast
4:15 PM 59.0 °F - 44.6 °F 59% 30.01 in 10.0 mi East 13.8 mph 18.4 mph N/A   Overcast
4:35 PM 59.0 °F - 44.6 °F 59% 29.99 in 10.0 mi East 13.8 mph 17.3 mph N/A   Overcast
4:55 PM 59.0 °F - 44.6 °F 59% 29.99 in 10.0 mi East 13.8 mph - N/A   Overcast
5:15 PM 59.0 °F - 44.6 °F 59% 29.98 in 10.0 mi East 11.5 mph 19.6 mph N/A   Overcast
5:35 PM 59.0 °F - 44.6 °F 59% 29.99 in 10.0 mi East 10.4 mph - N/A   Overcast
5:55 PM 59.0 °F - 42.8 °F 55% 29.99 in 10.0 mi East 10.4 mph 17.3 mph N/A   Overcast
6:15 PM 59.0 °F - 42.8 °F 55% 29.99 in 10.0 mi East 10.4 mph 16.1 mph N/A   Overcast
6:35 PM 57.2 °F - 42.8 °F 59% 30.00 in 10.0 mi East 11.5 mph - N/A   Overcast
6:55 PM 59.0 °F - 42.8 °F 55% 29.99 in 10.0 mi East 15.0 mph 21.9 mph N/A   Overcast
7:15 PM 57.2 °F - 42.8 °F 59% 29.99 in 10.0 mi East 13.8 mph - N/A   Overcast
7:35 PM 57.2 °F - 41.0 °F 55% 29.99 in 10.0 mi East 12.7 mph 19.6 mph N/A   Overcast
7:55 PM 57.2 °F - 41.0 °F 55% 29.99 in 10.0 mi East 15.0 mph 21.9 mph N/A   Overcast
8:15 PM 55.4 °F - 41.0 °F 58% 29.98 in 10.0 mi East 12.7 mph 19.6 mph N/A   Overcast
8:35 PM 55.4 °F - 41.0 °F 58% 29.98 in 10.0 mi East 13.8 mph 19.6 mph N/A   Overcast
8:55 PM 55.4 °F - 41.0 °F 58% 29.97 in 10.0 mi East 15.0 mph 20.7 mph N/A   Overcast
9:15 PM 55.4 °F - 41.0 °F 58% 29.97 in 10.0 mi East 13.8 mph 19.6 mph N/A   Overcast
9:35 PM 55.4 °F - 41.0 °F 58% 29.97 in 10.0 mi East 13.8 mph 20.7 mph N/A   Overcast
9:55 PM 55.4 °F - 42.8 °F 63% 29.96 in 10.0 mi East 12.7 mph 18.4 mph N/A   Overcast
10:15 PM 55.4 °F - 44.6 °F 67% 29.96 in 10.0 mi East 12.7 mph 18.4 mph N/A   Overcast
10:55 PM 55.4 °F - 46.4 °F 72% 29.96 in 10.0 mi East 9.2 mph - N/A   Overcast
11:15 PM 55.4 °F - 46.4 °F 72% 29.96 in 10.0 mi East 9.2 mph - N/A Rain Light Rain
11:35 PM 55.4 °F - 48.2 °F 77% 29.95 in 10.0 mi East 10.4 mph - N/A   Overcast
11:55 PM 55.4 °F - 50.0 °F 82% 29.94 in 10.0 mi East 15.0 mph 21.9 mph N/A   Overcast